QPF
0.01 0.01 0.01 0.00 0.00 0.00 0.00 0.00 0.00 0.02 0.03 0.04 0.05 0.02 0.01 0.01 0.01 0.01 0.01 0.01 0.01 0.02 0.04 0.02 0.02 0.03 0.04 0.04 0.04 0.05 0.09 0.10 0.11 0.11 0.11 0.13 0.15 0.16 0.15 0.15 0.14 0.15 0.16 0.16
0.00 0.01 0.01 0.01 0.00 0.00 0.00 0.00 0.00 0.02 0.05 0.05 0.06 0.03 0.02 0.02 0.01 0.02 0.02 0.01 0.01 0.01 0.01 0.01 0.02 0.03 0.04 0.05 0.04 0.05 0.07 0.07 0.08 0.08 0.08 0.09 0.12 0.14 0.14 0.14 0.16 0.15 0.14 0.14
0.00 0.01 0.01 0.01 0.00 0.00 0.00 0.00 0.00 0.03 0.07 0.04 0.03 0.02 0.02 0.03 0.02 0.01 0.01 0.00 0.00 0.01 0.02 0.02 0.02 0.03 0.05 0.06 0.07 0.08 0.08 0.09 0.08 0.05 0.06 0.07 0.09 0.12 0.16 0.15 0.15 0.14 0.15 0.16
0.00 0.01 0.02 0.01 0.00 0.00 0.02 0.01 0.01 0.03 0.07 0.05 0.03 0.03 0.03 0.03 0.01 0.01 0.00 0.00 0.00 0.01 0.01 0.02 0.03 0.04 0.04 0.06 0.08 0.10 0.11 0.12 0.09 0.06 0.06 0.08 0.09 0.10 0.14 0.18 0.17 0.15 0.17 0.18
0.01 0.02 0.02 0.01 0.00 0.00 0.02 0.03 0.04 0.06 0.05 0.07 0.05 0.03 0.03 0.02 0.02 0.03 0.01 0.01 0.01 0.01 0.02 0.02 0.02 0.03 0.04 0.05 0.07 0.08 0.07 0.07 0.06 0.05 0.05 0.06 0.07 0.10 0.12 0.15 0.17 0.17 0.19 0.20
0.01 0.03 0.05 0.05 0.01 0.01 0.01 0.03 0.02 0.04 0.07 0.07 0.05 0.06 0.06 0.02 0.00 0.01 0.00 0.01 0.01 0.01 0.02 0.02 0.02 0.03 0.04 0.03 0.04 0.06 0.07 0.07 0.07 0.07 0.08 0.08 0.09 0.13 0.14 0.15 0.14 0.15 0.16 0.17
0.02 0.03 0.06 0.05 0.04 0.02 0.03 0.06 0.04 0.06 0.07 0.05 0.05 0.05 0.05 0.03 0.01 0.00 0.01 0.01 0.01 0.01 0.02 0.03 0.03 0.03 0.03 0.05 0.07 0.08 0.07 0.07 0.07 0.09 0.11 0.12 0.12 0.13 0.12 0.11 0.10 0.10 0.13 0.15
0.03 0.07 0.09 0.05 0.05 0.07 0.08 0.04 0.03 0.05 0.06 0.05 0.04 0.02 0.02 0.02 0.01 0.01 0.01 0.01 0.01 0.02 0.04 0.05 0.05 0.04 0.05 0.06 0.06 0.06 0.08 0.09 0.10 0.11 0.10 0.11 0.12 0.12 0.13 0.12 0.09 0.09 0.10 0.13
0.06 0.09 0.08 0.05 0.05 0.04 0.04 0.04 0.03 0.04 0.06 0.05 0.04 0.04 0.03 0.01 0.01 0.01 0.00 0.01 0.01 0.02 0.02 0.03 0.04 0.06 0.06 0.07 0.07 0.06 0.07 0.08 0.09 0.10 0.11 0.12 0.12 0.13 0.13 0.11 0.09 0.09 0.09 0.08
0.06 0.05 0.03 0.03 0.03 0.04 0.03 0.02 0.03 0.04 0.03 0.03 0.03 0.03 0.02 0.01 0.01 0.01 0.01 0.01 0.01 0.02 0.02 0.03 0.03 0.04 0.06 0.07 0.07 0.07 0.05 0.05 0.05 0.06 0.08 0.08 0.09 0.11 0.11 0.09 0.07 0.07 0.07 0.06
0.12 0.12 0.06 0.06 0.03 0.03 0.02 0.02 0.03 0.04 0.03 0.02 0.01 0.01 0.01 0.01 0.01 0.01 0.01 0.01 0.01 0.02 0.02 0.03 0.04 0.04 0.04 0.06 0.06 0.05 0.04 0.04 0.04 0.04 0.04 0.03 0.03 0.04 0.05 0.06 0.08 0.07 0.05 0.06
0.16 0.14 0.08 0.09 0.04 0.01 0.01 0.02 0.02 0.02 0.03 0.02 0.01 0.01 0.01 0.01 0.01 0.01 0.01 0.01 0.01 0.02 0.03 0.04 0.05 0.05 0.04 0.05 0.04 0.03 0.03 0.04 0.04 0.04 0.03 0.02 0.02 0.03 0.05 0.06 0.08 0.07 0.05 0.04
0.09 0.09 0.06 0.06 0.04 0.02 0.02 0.03 0.03 0.02 0.03 0.02 0.01 0.01 0.01 0.01 0.01 0.01 0.01 0.01 0.02 0.03 0.03 0.03 0.04 0.04 0.04 0.05 0.05 0.04 0.03 0.02 0.02 0.02 0.02 0.02 0.02 0.03 0.03 0.04 0.05 0.04 0.04 0.04
0.05 0.04 0.06 0.05 0.05 0.04 0.03 0.04 0.04 0.03 0.02 0.01 0.01 0.01 0.00 0.01 0.01 0.01 0.01 0.01 0.01 0.02 0.03 0.02 0.03 0.04 0.04 0.03 0.03 0.03 0.03 0.03 0.03 0.03 0.03 0.03 0.04 0.05 0.05 0.06 0.06 0.05 0.05 0.03
0.05 0.04 0.05 0.06 0.04 0.05 0.04 0.04 0.05 0.05 0.03 0.02 0.01 0.01 0.01 0.01 0.01 0.01 0.01 0.01 0.01 0.02 0.03 0.03 0.03 0.03 0.03 0.03 0.03 0.03 0.03 0.03 0.03 0.04 0.04 0.04 0.05 0.06 0.05 0.05 0.04 0.04 0.03 0.02
0.06 0.04 0.04 0.05 0.04 0.06 0.05 0.04 0.04 0.05 0.04 0.04 0.03 0.02 0.01 0.02 0.01 0.01 0.00 0.01 0.01 0.01 0.02 0.03 0.04 0.03 0.03 0.04 0.05 0.04 0.03 0.03 0.03 0.03 0.04 0.04 0.04 0.03 0.03 0.02 0.02 0.01 0.01 0.01
0.08 0.07 0.05 0.05 0.04 0.05 0.06 0.04 0.04 0.04 0.04 0.04 0.04 0.02 0.02 0.02 0.01 0.01 0.01 0.01 0.01 0.01 0.02 0.03 0.03 0.03 0.02 0.04 0.05 0.05 0.05 0.05 0.04 0.03 0.02 0.02 0.01 0.01 0.01 0.00 0.01 0.00 0.00 0.00
0.06 0.06 0.06 0.05 0.05 0.05 0.06 0.05 0.05 0.05 0.05 0.04 0.03 0.03 0.02 0.02 0.03 0.02 0.01 0.01 0.01 0.01 0.01 0.01 0.02 0.02 0.02 0.02 0.02 0.04 0.03 0.03 0.03 0.02 0.02 0.01 0.01 0.01 0.01 0.00 0.00 0.00 0.00 0.00
0.04 0.04 0.04 0.05 0.06 0.06 0.06 0.05 0.06 0.07 0.05 0.04 0.04 0.03 0.02 0.02 0.02 0.03 0.03 0.02 0.02 0.02 0.02 0.01 0.02 0.01 0.01 0.01 0.01 0.02 0.02 0.02 0.02 0.02 0.02 0.02 0.01 0.01 0.00 0.00 0.00 0.00 0.00 0.00
0.05 0.04 0.05 0.05 0.06 0.06 0.06 0.05 0.05 0.05 0.05 0.05 0.05 0.05 0.05 0.03 0.02 0.02 0.02 0.03 0.03 0.02 0.02 0.02 0.02 0.01 0.01 0.01 0.01 0.01 0.00 0.00 0.01 0.01 0.01 0.01 0.00 0.00 0.00 0.00 0.00 0.00 0.00 0.00
0.08 0.07 0.06 0.06 0.07 0.06 0.05 0.04 0.04 0.03 0.03 0.03 0.04 0.05 0.05 0.03 0.02 0.02 0.02 0.02 0.02 0.02 0.01 0.01 0.01 0.01 0.01 0.01 0.01 0.00 0.00 0.00 0.00 0.00 0.01 0.01 0.00 0.00 0.00 0.00 0.00 0.00 0.00 0.00
0.07 0.07 0.07 0.07 0.05 0.04 0.04 0.04 0.03 0.03 0.04 0.05 0.04 0.04 0.04 0.03 0.03 0.02 0.02 0.01 0.01 0.01 0.01 0.01 0.01 0.01 0.01 0.01 0.00 0.00 0.00 0.00 0.01 0.01 0.01 0.02 0.01 0.01 0.01 0.00 0.00 0.00 0.00 0.00
0.05 0.05 0.05 0.05 0.04 0.03 0.04 0.04 0.03 0.03 0.05 0.05 0.05 0.04 0.04 0.03 0.03 0.02 0.02 0.01 0.01 0.01 0.00 0.00 0.00 0.00 0.00 0.00 0.00 0.00 0.00 0.00 0.00 0.00 0.00 0.01 0.00 0.00 0.00 0.00 0.00 0.00 0.00 0.00
0.05 0.05 0.04 0.03 0.03 0.03 0.03 0.03 0.02 0.03 0.04 0.04 0.04 0.03 0.02 0.02 0.02 0.01 0.01 0.01 0.00 0.00 0.00 0.00 0.00 0.00 0.00 0.00 0.00 0.00 0.00 0.00 0.00 0.00 0.00 0.00 0.00 0.00 0.00 0.00 0.00 0.00 0.00 0.00
0.06 0.06 0.05 0.04 0.04 0.04 0.04 0.03 0.02 0.03 0.02 0.02 0.02 0.02 0.02 0.02 0.01 0.01 0.00 0.00 0.00 0.00 0.00 0.00 0.00 0.00 0.00 0.00 0.00 0.00 0.00 0.00 0.00 0.00 0.00 0.00 0.00 0.00 0.00 0.00 0.00 0.00 0.00 0.00
0.07 0.07 0.07 0.06 0.05 0.04 0.04 0.03 0.03 0.03 0.02 0.02 0.02 0.02 0.01 0.01 0.00 0.00 0.00 0.00 0.00 0.00 0.00 0.00 0.00 0.00 0.00 0.00 0.00 0.00 0.00 0.00 0.00 0.00 0.00 0.00 0.00 0.00 0.00 0.00 0.00 0.00 0.00 0.00
0.07 0.07 0.07 0.07 0.07 0.06 0.05 0.05 0.04 0.03 0.03 0.02 0.02 0.01 0.01 0.01 0.00 0.00 0.00 0.00 0.00 0.00 0.00 0.00 0.00 0.00 0.00 0.00 0.00 0.00 0.00 0.00 0.00 0.00 0.00 0.00 0.00 0.00 0.00 0.00 0.00 0.00 0.00 0.00
MSLP
1004.61 1004.81 1004.97 1005.10 1005.23 1005.35 1005.46 1005.56 1005.63 1005.69 1005.71 1005.73 1005.74 1005.78 1005.87 1006.02 1006.25 1006.54 1006.90 1007.29 1007.68 1008.04 1008.35 1008.60 1008.77 1008.86 1008.90 1008.89 1008.87 1008.84 1008.82 1008.82 1008.83 1008.86 1008.90 1008.93 1008.97 1009.00 1009.04 1009.09 1009.17 1009.29 1009.46 1009.69
1004.97 1005.05 1005.04 1004.96 1004.84 1004.72 1004.63 1004.59 1004.62 1004.71 1004.87 1005.09 1005.35 1005.65 1005.99 1006.35 1006.73 1007.12 1007.51 1007.89 1008.24 1008.54 1008.79 1008.98 1009.11 1009.17 1009.17 1009.14 1009.07 1009.00 1008.92 1008.85 1008.80 1008.77 1008.77 1008.77 1008.80 1008.83 1008.88 1008.94 1009.02 1009.13 1009.27 1009.47
1005.26 1005.22 1005.05 1004.78 1004.46 1004.16 1003.91 1003.77 1003.77 1003.92 1004.19 1004.59 1005.07 1005.61 1006.16 1006.70 1007.22 1007.70 1008.12 1008.49 1008.80 1009.06 1009.26 1009.40 1009.48 1009.51 1009.49 1009.42 1009.32 1009.20 1009.07 1008.95 1008.85 1008.78 1008.74 1008.74 1008.77 1008.83 1008.90 1008.99 1009.09 1009.21 1009.34 1009.51
1005.31 1005.17 1004.87 1004.46 1004.00 1003.57 1003.23 1003.05 1003.06 1003.27 1003.67 1004.23 1004.91 1005.64 1006.37 1007.07 1007.69 1008.24 1008.69 1009.05 1009.33 1009.54 1009.70 1009.80 1009.86 1009.86 1009.82 1009.73 1009.61 1009.45 1009.29 1009.13 1008.99 1008.89 1008.85 1008.86 1008.91 1009.01 1009.14 1009.28 1009.42 1009.57 1009.72 1009.89
1005.05 1004.80 1004.40 1003.89 1003.36 1002.87 1002.52 1002.36 1002.42 1002.74 1003.27 1003.99 1004.83 1005.72 1006.60 1007.41 1008.12 1008.71 1009.17 1009.53 1009.78 1009.97 1010.09 1010.17 1010.20 1010.20 1010.15 1010.05 1009.92 1009.75 1009.57 1009.39 1009.25 1009.15 1009.12 1009.16 1009.27 1009.43 1009.63 1009.84 1010.05 1010.24 1010.42 1010.60
1004.44 1004.08 1003.59 1003.04 1002.49 1002.02 1001.72 1001.65 1001.83 1002.28 1002.96 1003.83 1004.82 1005.85 1006.83 1007.73 1008.49 1009.10 1009.57 1009.90 1010.13 1010.29 1010.40 1010.47 1010.51 1010.51 1010.47 1010.39 1010.27 1010.12 1009.95 1009.79 1009.67 1009.60 1009.61 1009.71 1009.88 1010.12 1010.40 1010.69 1010.97 1011.22 1011.45 1011.64
1003.56 1003.07 1002.52 1001.95 1001.44 1001.05 1000.86 1000.92 1001.26 1001.88 1002.72 1003.74 1004.86 1005.99 1007.06 1008.00 1008.79 1009.40 1009.86 1010.17 1010.39 1010.53 1010.63 1010.71 1010.77 1010.80 1010.80 1010.77 1010.69 1010.59 1010.47 1010.36 1010.29 1010.28 1010.35 1010.51 1010.76 1011.08 1011.44 1011.81 1012.16 1012.47 1012.73 1012.95
1002.55 1001.94 1001.33 1000.76 1000.31 1000.04 1000.00 1000.24 1000.77 1001.56 1002.57 1003.73 1004.96 1006.17 1007.29 1008.25 1009.04 1009.64 1010.07 1010.37 1010.57 1010.71 1010.81 1010.92 1011.01 1011.10 1011.17 1011.21 1011.21 1011.18 1011.14 1011.11 1011.12 1011.18 1011.32 1011.56 1011.88 1012.27 1012.70 1013.14 1013.54 1013.90 1014.19 1014.41
1001.59 1000.86 1000.19 999.65 999.27 999.13 999.27 999.69 1000.41 1001.37 1002.54 1003.82 1005.14 1006.40 1007.54 1008.50 1009.27 1009.85 1010.26 1010.53 1010.72 1010.86 1011.00 1011.14 1011.29 1011.45 1011.60 1011.73 1011.83 1011.90 1011.96 1012.02 1012.12 1012.26 1012.48 1012.78 1013.17 1013.61 1014.08 1014.56 1015.00 1015.38 1015.68 1015.90
1000.86 1000.02 999.31 998.79 998.50 998.49 998.78 999.38 1000.26 1001.38 1002.67 1004.04 1005.41 1006.70 1007.84 1008.78 1009.53 1010.07 1010.46 1010.72 1010.90 1011.07 1011.23 1011.42 1011.64 1011.88 1012.12 1012.34 1012.55 1012.73 1012.88 1013.04 1013.21 1013.43 1013.71 1014.06 1014.48 1014.95 1015.45 1015.93 1016.38 1016.76 1017.06 1017.27
1000.48 999.56 998.83 998.33 998.11 998.21 998.64 999.37 1000.38 1001.61 1002.98 1004.40 1005.79 1007.08 1008.19 1009.11 1009.82 1010.35 1010.71 1010.97 1011.17 1011.37 1011.57 1011.82 1012.10 1012.41 1012.73 1013.04 1013.33 1013.59 1013.82 1014.05 1014.29 1014.56 1014.87 1015.25 1015.68 1016.14 1016.63 1017.11 1017.54 1017.90 1018.18 1018.38
1000.50 999.54 998.80 998.34 998.18 998.37 998.88 999.71 1000.79 1002.07 1003.46 1004.89 1006.26 1007.52 1008.60 1009.48 1010.17 1010.68 1011.05 1011.33 1011.56 1011.79 1012.04 1012.33 1012.66 1013.02 1013.40 1013.76 1014.10 1014.40 1014.68 1014.94 1015.21 1015.49 1015.82 1016.19 1016.60 1017.05 1017.51 1017.95 1018.36 1018.70 1018.97 1019.14
1000.84 999.89 999.18 998.76 998.66 998.90 999.47 1000.33 1001.43 1002.70 1004.07 1005.46 1006.78 1007.99 1009.02 1009.88 1010.55 1011.07 1011.46 1011.77 1012.04 1012.32 1012.61 1012.94 1013.30 1013.69 1014.07 1014.44 1014.78 1015.08 1015.36 1015.61 1015.87 1016.14 1016.44 1016.78 1017.17 1017.58 1018.01 1018.43 1018.81 1019.14 1019.40 1019.57
1001.38 1000.50 999.86 999.50 999.45 999.73 1000.30 1001.15 1002.22 1003.44 1004.74 1006.05 1007.30 1008.44 1009.43 1010.26 1010.94 1011.48 1011.91 1012.27 1012.59 1012.92 1013.25 1013.60 1013.96 1014.33 1014.68 1015.01 1015.31 1015.56 1015.79 1016.00 1016.21 1016.45 1016.71 1017.02 1017.37 1017.76 1018.16 1018.56 1018.94 1019.27 1019.53 1019.72
1001.98 1001.22 1000.68 1000.40 1000.41 1000.71 1001.28 1002.09 1003.09 1004.22 1005.42 1006.63 1007.79 1008.85 1009.80 1010.61 1011.30 1011.87 1012.36 1012.77 1013.16 1013.52 1013.88 1014.23 1014.57 1014.89 1015.18 1015.43 1015.64 1015.81 1015.97 1016.11 1016.26 1016.44 1016.67 1016.95 1017.28 1017.66 1018.06 1018.46 1018.85 1019.20 1019.49 1019.71
1002.54 1001.94 1001.53 1001.35 1001.42 1001.74 1002.29 1003.05 1003.96 1004.98 1006.06 1007.16 1008.22 1009.21 1010.11 1010.91 1011.61 1012.23 1012.77 1013.25 1013.68 1014.08 1014.45 1014.78 1015.07 1015.32 1015.52 1015.68 1015.78 1015.86 1015.92 1015.99 1016.09 1016.23 1016.44 1016.71 1017.04 1017.43 1017.85 1018.28 1018.69 1019.08 1019.41 1019.68
1003.01 1002.60 1002.35 1002.29 1002.43 1002.77 1003.31 1004.00 1004.81 1005.73 1006.69 1007.66 1008.62 1009.54 1010.39 1011.18 1011.90 1012.55 1013.14 1013.67 1014.14 1014.56 1014.92 1015.22 1015.46 1015.63 1015.73 1015.78 1015.79 1015.78 1015.76 1015.77 1015.84 1015.97 1016.17 1016.46 1016.82 1017.24 1017.70 1018.17 1018.63 1019.06 1019.43 1019.75
1003.44 1003.22 1003.13 1003.20 1003.42 1003.80 1004.32 1004.95 1005.69 1006.49 1007.33 1008.20 1009.05 1009.90 1010.70 1011.47 1012.19 1012.86 1013.48 1014.04 1014.53 1014.95 1015.30 1015.56 1015.73 1015.83 1015.85 1015.81 1015.74 1015.66 1015.61 1015.59 1015.65 1015.79 1016.03 1016.36 1016.77 1017.24 1017.75 1018.27 1018.77 1019.23 1019.64 1019.98
1003.92 1003.89 1003.96 1004.15 1004.45 1004.87 1005.38 1005.97 1006.63 1007.33 1008.07 1008.83 1009.59 1010.36 1011.11 1011.84 1012.54 1013.21 1013.83 1014.39 1014.88 1015.28 1015.60 1015.82 1015.94 1015.97 1015.94 1015.85 1015.74 1015.63 1015.57 1015.57 1015.66 1015.85 1016.14 1016.53 1017.00 1017.53 1018.08 1018.63 1019.15 1019.63 1020.05 1020.40
1004.58 1004.70 1004.92 1005.21 1005.59 1006.04 1006.54 1007.10 1007.69 1008.31 1008.96 1009.62 1010.29 1010.97 1011.65 1012.33 1012.99 1013.62 1014.21 1014.75 1015.21 1015.59 1015.87 1016.05 1016.13 1016.13 1016.06 1015.96 1015.85 1015.76 1015.73 1015.78 1015.93 1016.18 1016.54 1017.00 1017.52 1018.08 1018.66 1019.23 1019.75 1020.22 1020.62 1020.95
1005.50 1005.76 1006.07 1006.45 1006.88 1007.35 1007.85 1008.37 1008.90 1009.45 1010.01 1010.57 1011.15 1011.75 1012.35 1012.95 1013.54 1014.12 1014.66 1015.15 1015.56 1015.89 1016.13 1016.28 1016.34 1016.33 1016.27 1016.18 1016.11 1016.07 1016.10 1016.22 1016.45 1016.77 1017.20 1017.70 1018.26 1018.84 1019.42 1019.97 1020.47 1020.89 1021.25 1021.54
1006.73 1007.06 1007.44 1007.86 1008.32 1008.79 1009.27 1009.75 1010.22 1010.70 1011.17 1011.65 1012.14 1012.64 1013.15 1013.67 1014.18 1014.68 1015.15 1015.57 1015.93 1016.21 1016.41 1016.54 1016.59 1016.59 1016.56 1016.52 1016.50 1016.54 1016.65 1016.84 1017.14 1017.53 1018.00 1018.53 1019.10 1019.68 1020.23 1020.74 1021.18 1021.55 1021.85 1022.08
1008.19 1008.55 1008.96 1009.39 1009.83 1010.28 1010.72 1011.15 1011.57 1011.98 1012.37 1012.77 1013.17 1013.58 1014.00 1014.42 1014.84 1015.25 1015.64 1015.99 1016.29 1016.52 1016.70 1016.81 1016.88 1016.90 1016.91 1016.93 1016.99 1017.10 1017.28 1017.55 1017.90 1018.33 1018.83 1019.37 1019.92 1020.46 1020.96 1021.41 1021.79 1022.10 1022.34 1022.52
1009.77 1010.12 1010.51 1010.91 1011.31 1011.72 1012.10 1012.48 1012.83 1013.16 1013.49 1013.81 1014.13 1014.45 1014.78 1015.11 1015.45 1015.78 1016.09 1016.37 1016.61 1016.81 1016.97 1017.08 1017.16 1017.22 1017.28 1017.37 1017.49 1017.67 1017.92 1018.24 1018.62 1019.07 1019.57 1020.08 1020.60 1021.09 1021.53 1021.92 1022.24 1022.49 1022.69 1022.85
1011.30 1011.61 1011.94 1012.29 1012.63 1012.97 1013.29 1013.60 1013.89 1014.16 1014.41 1014.66 1014.91 1015.17 1015.42 1015.68 1015.94 1016.20 1016.45 1016.67 1016.88 1017.05 1017.20 1017.32 1017.43 1017.53 1017.64 1017.78 1017.97 1018.20 1018.49 1018.84 1019.24 1019.68 1020.15 1020.63 1021.09 1021.52 1021.91 1022.25 1022.53 1022.75 1022.93 1023.09
1012.62 1012.87 1013.14 1013.41 1013.68 1013.95 1014.20 1014.44 1014.67 1014.88 1015.09 1015.28 1015.48 1015.68 1015.88 1016.09 1016.30 1016.51 1016.71 1016.90 1017.08 1017.25 1017.40 1017.53 1017.67 1017.81 1017.97 1018.16 1018.38 1018.65 1018.96 1019.32 1019.71 1020.13 1020.56 1021.00 1021.41 1021.80 1022.14 1022.45 1022.71 1022.93 1023.13 1023.32
1013.62 1013.81 1014.01 1014.21 1014.41 1014.61 1014.81 1014.99 1015.17 1015.34 1015.51 1015.67 1015.84 1016.01 1016.18 1016.36 1016.54 1016.73 1016.91 1017.08 1017.26 1017.42 1017.58 1017.75 1017.91 1018.09 1018.28 1018.50 1018.76 1019.04 1019.36 1019.71 1020.08 1020.47 1020.86 1021.25 1021.63 1021.98 1022.31 1022.60 1022.87 1023.12 1023.35 1023.59
Thickness
5785 5794 5794 5792 5794 5800 5798 5799 5791 5789 5787 5792 5796 5798 5801 5803 5802 5797 5793 5791 5788 5786 5784 5783 5781 5779 5777 5775 5773 5770 5764 5759 5756 5755 5753 5751 5748 5746 5744 5743 5741 5740 5738 5737
5770 5786 5790 5789 5796 5799 5798 5801 5798 5793 5787 5798 5797 5794 5793 5794 5792 5788 5783 5783 5783 5782 5780 5778 5777 5775 5774 5771 5769 5767 5761 5757 5754 5752 5749 5747 5744 5741 5739 5737 5736 5735 5733 5731
5758 5773 5777 5771 5791 5796 5796 5802 5798 5784 5783 5789 5784 5781 5784 5785 5785 5782 5780 5779 5777 5776 5773 5773 5773 5772 5769 5768 5766 5762 5758 5754 5751 5748 5745 5742 5740 5737 5734 5731 5730 5727 5725 5724
5755 5754 5739 5775 5808 5809 5800 5799 5801 5793 5788 5787 5782 5782 5784 5783 5780 5777 5775 5773 5772 5772 5770 5770 5770 5769 5767 5764 5761 5757 5753 5750 5747 5743 5739 5737 5734 5731 5728 5726 5723 5720 5718 5717
5747 5742 5750 5776 5797 5799 5791 5785 5798 5788 5784 5781 5779 5775 5770 5775 5774 5770 5769 5768 5767 5768 5767 5765 5764 5764 5761 5758 5755 5751 5747 5745 5742 5739 5735 5731 5728 5725 5722 5719 5716 5713 5711 5709
5740 5732 5734 5759 5783 5801 5791 5767 5787 5784 5777 5774 5769 5755 5751 5764 5766 5764 5763 5762 5762 5762 5760 5756 5756 5756 5753 5750 5747 5744 5742 5739 5737 5734 5730 5725 5722 5719 5716 5712 5709 5706 5702 5699
5733 5730 5739 5759 5775 5782 5756 5753 5775 5775 5771 5769 5763 5757 5753 5756 5756 5756 5754 5754 5753 5752 5749 5748 5748 5747 5743 5741 5738 5737 5735 5732 5729 5726 5722 5718 5715 5712 5709 5705 5701 5697 5693 5690
5730 5721 5721 5752 5760 5751 5752 5769 5769 5766 5763 5760 5756 5753 5750 5748 5746 5744 5743 5743 5743 5741 5738 5738 5738 5737 5733 5730 5730 5729 5727 5723 5719 5716 5714 5710 5706 5703 5699 5696 5693 5689 5685 5682
5725 5719 5729 5744 5745 5750 5760 5757 5757 5758 5756 5753 5746 5741 5739 5738 5736 5734 5733 5732 5732 5731 5728 5727 5727 5726 5723 5720 5721 5719 5716 5711 5708 5705 5702 5699 5696 5693 5690 5688 5686 5682 5678 5673
5717 5717 5726 5734 5740 5744 5748 5751 5753 5753 5749 5745 5737 5732 5729 5728 5726 5723 5722 5722 5722 5720 5717 5715 5715 5715 5713 5712 5711 5708 5704 5700 5696 5693 5688 5684 5682 5679 5677 5675 5673 5670 5667 5662
5703 5709 5717 5723 5730 5734 5739 5743 5743 5741 5739 5735 5729 5724 5721 5717 5715 5714 5713 5712 5711 5709 5706 5704 5705 5704 5703 5703 5701 5697 5693 5689 5684 5679 5673 5668 5663 5658 5658 5653 5655 5657 5654 5650
5694 5703 5704 5706 5720 5727 5728 5727 5728 5726 5723 5722 5719 5714 5711 5707 5705 5704 5702 5701 5699 5697 5695 5694 5693 5692 5691 5692 5690 5687 5683 5678 5674 5670 5664 5659 5654 5646 5639 5640 5640 5640 5638 5637
5700 5704 5703 5704 5710 5715 5715 5715 5714 5712 5710 5707 5705 5703 5700 5696 5694 5693 5691 5689 5687 5686 5685 5684 5683 5681 5681 5681 5680 5678 5675 5671 5667 5662 5657 5652 5648 5642 5635 5628 5626 5625 5624 5623
5696 5696 5692 5695 5697 5701 5703 5703 5701 5698 5698 5696 5694 5691 5688 5685 5683 5681 5680 5678 5677 5676 5674 5673 5672 5670 5670 5670 5669 5667 5665 5661 5658 5654 5651 5647 5642 5637 5632 5627 5621 5615 5611 5610
5687 5689 5686 5687 5689 5689 5690 5689 5685 5683 5683 5682 5681 5679 5676 5673 5670 5669 5669 5668 5667 5665 5663 5661 5659 5658 5658 5658 5657 5655 5653 5650 5647 5645 5642 5639 5635 5632 5627 5622 5616 5610 5605 5601
5678 5679 5679 5677 5678 5678 5678 5677 5673 5670 5670 5669 5667 5666 5664 5661 5659 5658 5657 5656 5654 5652 5650 5649 5648 5647 5648 5648 5646 5644 5641 5638 5638 5635 5633 5630 5626 5623 5619 5614 5610 5605 5601 5597
5665 5664 5666 5667 5667 5667 5667 5666 5664 5661 5659 5657 5655 5655 5653 5650 5647 5645 5645 5644 5643 5641 5640 5639 5639 5639 5639 5638 5637 5636 5633 5630 5628 5626 5623 5620 5617 5614 5610 5607 5603 5597 5592 5587
5660 5660 5662 5662 5660 5658 5655 5655 5653 5651 5648 5647 5646 5644 5641 5639 5636 5634 5634 5634 5633 5631 5630 5630 5630 5631 5630 5629 5628 5628 5626 5623 5620 5617 5614 5611 5607 5605 5602 5598 5593 5588 5583 5579
5651 5652 5652 5652 5651 5649 5646 5643 5642 5640 5638 5636 5635 5632 5630 5628 5627 5626 5625 5624 5622 5620 5618 5619 5619 5621 5620 5619 5619 5619 5618 5616 5612 5608 5605 5600 5599 5597 5592 5587 5582 5578 5573 5568
5642 5643 5642 5641 5640 5639 5636 5634 5632 5630 5628 5626 5624 5622 5619 5618 5617 5616 5615 5613 5612 5611 5609 5609 5610 5610 5610 5610 5610 5611 5609 5606 5603 5599 5596 5592 5588 5584 5580 5576 5571 5566 5561 5556
5632 5631 5630 5630 5628 5627 5626 5624 5623 5620 5618 5616 5614 5611 5610 5609 5609 5608 5606 5602 5600 5601 5601 5600 5600 5599 5599 5598 5600 5601 5600 5597 5594 5590 5586 5582 5577 5573 5569 5564 5559 5555 5550 5546
5622 5621 5620 5620 5618 5616 5616 5615 5613 5611 5608 5606 5605 5603 5601 5600 5599 5597 5595 5593 5592 5591 5593 5592 5590 5588 5588 5590 5593 5592 5590 5587 5583 5579 5575 5570 5565 5561 5556 5552 5548 5544 5540 5536
5612 5612 5611 5610 5609 5608 5607 5605 5604 5602 5600 5598 5596 5595 5594 5593 5592 5590 5585 5585 5585 5582 5582 5580 5578 5579 5579 5583 5583 5581 5578 5575 5572 5568 5563 5559 5555 5550 5545 5542 5538 5534 5529 5525
5605 5604 5603 5602 5601 5600 5597 5595 5594 5593 5592 5590 5589 5588 5588 5586 5583 5581 5577 5574 5574 5574 5572 5569 5569 5570 5570 5573 5572 5570 5567 5564 5561 5558 5553 5548 5544 5540 5535 5531 5527 5523 5519 5515
5598 5597 5596 5594 5593 5592 5590 5588 5587 5586 5585 5583 5582 5581 5581 5579 5576 5573 5570 5567 5565 5566 5564 5562 5561 5562 5563 5563 5561 5558 5555 5552 5549 5546 5541 5537 5533 5529 5525 5521 5517 5513 5509 5504
5590 5590 5589 5589 5588 5586 5586 5584 5583 5581 5580 5577 5575 5574 5573 5570 5568 5566 5564 5562 5561 5559 5558 5557 5556 5555 5555 5552 5549 5547 5544 5541 5539 5535 5530 5527 5523 5518 5514 5509 5505 5502 5498 5494
5583 5583 5582 5581 5581 5581 5581 5580 5578 5577 5576 5574 5571 5569 5567 5565 5563 5561 5559 5557 5555 5554 5552 5550 5549 5548 5545 5543 5540 5537 5535 5531 5528 5524 5520 5517 5512 5508 5504 5499 5496 5492 5488 5485